Probability
1 3 6 6 7 10 14 14 11 6 5 15 32 46 44 24 6 2 2 1 0 0 0 0 0 0 0 0 0 0 0 0 0 0 0 1 2 3
0 2 4 5 7 9 12 13 12 8 7 18 38 53 45 22 7 5 3 1 0 0 0 0 0 0 0 0 0 0 0 0 0 0 0 0 1 2
0 0 2 4 7 8 9 10 13 12 11 22 44 60 52 30 13 6 2 0 0 0 0 0 0 0 0 0 0 0 0 0 0 0 0 0 0 1
0 0 0 2 6 9 9 8 11 14 16 25 43 58 57 41 20 6 1 0 0 0 0 0 0 0 0 0 0 0 0 0 0 0 0 0 0 0
0 0 0 1 5 9 10 8 9 13 18 25 37 51 54 42 22 7 3 1 0 0 0 0 0 0 0 0 0 0 0 0 0 0 0 0 0 0
1 0 0 0 2 5 8 9 8 10 14 20 30 43 47 34 17 7 4 2 0 0 0 0 0 0 0 0 0 0 0 0 0 0 0 0 0 0
1 1 0 0 0 1 3 6 7 8 11 14 22 34 38 28 13 6 3 1 0 0 0 0 0 0 0 0 0 0 0 0 0 0 0 0 0 0
1 1 1 0 0 0 1 2 4 6 8 10 16 26 30 24 13 4 1 1 1 0 0 0 0 0 0 0 0 0 0 0 0 0 0 0 0 0
1 1 1 0 0 0 0 0 1 2 3 5 10 18 22 20 11 4 1 2 2 1 0 0 0 0 0 0 0 0 0 0 0 0 0 0 0 0
0 0 0 0 0 0 0 0 0 0 0 1 4 9 12 11 7 3 2 2 2 1 0 0 0 0 0 0 0 0 0 0 0 0 0 0 0 0
0 0 0 0 0 0 0 0 0 0 0 0 0 2 3 3 2 2 1 1 1 0 0 0 0 0 0 0 0 0 0 0 0 0 0 0 0 0
0 0 0 0 0 0 0 0 0 0 0 0 0 0 0 0 0 0 0 0 0 0 0 0 0 0 0 0 0 0 0 0 0 0 0 0 0 0
0 0 0 0 0 0 0 0 0 0 0 0 0 0 0 0 0 0 0 0 0 0 0 0 0 0 0 0 0 0 0 0 0 0 0 0 0 0
0 0 0 0 0 0 0 0 0 0 0 0 0 0 0 0 1 1 1 0 0 0 0 0 0 0 0 0 0 0 0 0 0 0 0 0 0 0
0 0 0 0 0 0 0 0 0 0 0 0 0 0 0 0 1 2 2 1 0 0 0 0 0 0 0 0 0 0 0 0 0 0 0 0 0 0
0 0 0 0 0 0 0 0 0 0 0 0 0 0 0 0 1 2 2 1 0 0 0 0 0 0 0 0 0 0 0 0 0 0 0 0 0 0
0 0 0 0 0 0 0 0 0 0 0 0 0 0 0 0 0 1 1 0 0 0 0 0 0 0 0 0 0 0 0 0 0 0 0 0 0 0
0 0 0 0 0 0 0 0 0 0 0 0 0 1 0 0 0 0 0 0 0 0 0 0 0 0 0 0 0 0 0 0 0 0 0 0 0 0
0 0 0 0 0 0 0 0 0 0 0 0 0 0 0 0 0 0 0 0 0 0 0 0 0 0 0 0 0 0 0 0 0 0 0 0 0 0
0 0 0 0 0 0 0 0 0 0 0 0 0 0 0 0 0 0 0 0 0 0 0 0 0 0 0 0 0 0 0 0 0 0 0 0 0 0
0 0 0 0 0 0 0 0 0 0 0 0 0 0 0 0 0 0 0 0 0 0 0 0 0 0 0 0 0 0 0 0 0 0 0 0 0 0
0 0 0 0 0 0 0 0 0 0 0 0 0 0 0 0 0 0 0 0 0 0 0 0 0 0 0 0 0 0 0 0 0 0 0 0 0 0
0 0 0 0 0 0 0 0 0 0 0 0 0 0 0 0 0 0 0 0 0 0 0 0 0 0 0 0 0 0 0 0 0 0 0 0 0 0
Wind_Speed
4 4 4 4 5 5 4 4 3 3 4 4 4 5 5 6 7 4 5 7 8 9 10 11 12 12 12 12 13 13 13 13 13 13 13 13 14 14
4 4 4 3 4 5 5 4 3 3 2 3 4 6 7 7 6 6 7 8 5 6 7 9 10 10 10 10 10 10 10 11 11 11 11 11 11 11
6 6 6 4 4 5 5 4 3 3 3 1 3 7 8 8 7 7 7 5 5 6 7 8 8 9 9 8 8 8 8 8 8 8 8 8 8 8
8 7 6 5 6 4 4 5 5 3 2 2 4 5 7 9 8 7 6 7 6 9 10 10 10 10 10 10 9 9 9 9 8 7 7 6 6 6
8 8 7 7 6 5 5 5 5 4 3 3 4 5 5 7 8 8 8 6 7 8 11 12 12 12 12 12 12 12 11 11 10 10 10 9 8 8
9 8 8 8 7 7 6 6 5 5 4 3 4 6 6 8 8 8 7 6 5 6 8 9 13 14 14 13 14 14 13 13 13 13 13 13 12 12
9 9 9 10 11 8 6 5 6 5 5 4 5 5 6 8 8 7 8 7 6 5 6 6 7 7 8 11 13 15 14 14 14 14 14 14 13 13
9 9 9 9 11 12 11 9 7 7 6 6 5 7 8 8 7 9 9 9 5 4 5 5 5 6 5 6 10 13 15 15 15 15 14 14 13 13
9 8 10 11 11 10 11 12 10 8 7 5 6 6 7 9 9 11 10 9 6 7 6 6 6 7 6 7 11 13 14 15 15 15 15 14 13 13
9 9 9 8 8 7 9 10 9 9 8 6 5 5 4 5 7 9 10 8 8 5 5 6 6 6 7 6 9 12 13 14 15 15 15 14 14 13
9 9 9 9 9 10 8 8 8 7 9 9 7 5 5 6 5 7 11 11 9 5 3 5 7 7 6 5 6 10 11 12 13 14 15 15 15 13
6 7 9 9 10 10 8 7 8 7 7 8 7 6 6 6 8 9 11 12 10 6 4 6 9 6 5 4 4 4 6 7 10 11 12 12 10 6
5 5 6 10 10 12 9 6 6 6 6 7 7 6 6 6 7 7 7 10 11 6 9 8 9 6 6 6 4 5 5 5 5 5 7 7 5 3
3 3 3 8 11 11 8 6 6 6 5 5 6 6 7 7 7 8 7 6 6 7 12 10 8 7 8 8 6 7 6 5 5 5 5 5 5 5
1 0 2 5 7 7 8 8 7 4 4 5 6 6 6 7 7 7 6 5 6 8 11 7 8 8 8 7 8 9 7 6 6 5 5 5 4 5
3 3 5 6 5 5 7 6 6 5 5 5 5 5 5 6 7 7 6 7 6 5 5 5 7 9 7 8 9 9 7 8 8 6 5 5 5 5
3 4 4 5 5 6 6 6 6 6 5 4 4 5 6 6 6 7 7 7 6 7 6 4 4 5 6 8 10 9 8 6 7 7 6 5 5 5
1 3 4 5 6 6 6 6 7 6 6 5 5 5 7 7 7 7 8 8 8 8 7 7 7 5 4 3 8 9 8 7 7 7 6 6 6 6
3 4 5 5 5 5 5 6 6 6 5 6 6 6 6 7 8 9 9 9 8 8 8 8 9 8 9 8 7 9 8 7 8 7 6 5 6 6
5 5 5 5 5 5 5 5 5 5 5 5 5 6 7 8 9 10 10 10 9 9 8 8 9 9 8 8 6 6 10 9 7 7 6 4 3 6
5 5 5 5 5 4 4 5 4 4 5 5 5 7 7 8 9 10 10 13 11 10 11 11 9 10 4 5 7 6 5 8 10 8 8 5 4 4
4 4 4 4 4 4 4 4 4 4 5 5 5 6 7 8 9 11 11 12 10 10 10 8 8 7 5 7 9 8 6 5 6 9 8 5 5 7
3 3 3 3 3 3 4 5 6 5 5 5 5 6 8 8 8 9 11 11 10 10 9 9 8 6 5 6 8 8 9 8 6 5 4 7 9 7
Wind_Direction
258 266 267 276 281 280 283 283 253 217 199 186 158 149 130 114 140 145 131 155 175 187 192 194 196 198 200 202 205 207 209 210 211 212 214 218 221 222
232 246 255 261 278 282 277 280 285 259 229 194 167 148 142 136 141 117 108 121 125 160 172 180 184 187 190 192 194 196 197 197 199 204 208 211 210 209
233 230 230 233 253 275 278 271 267 274 258 224 152 138 131 128 128 123 134 115 92 105 130 140 148 154 158 161 165 169 171 174 179 183 186 192 194 196
231 229 227 225 224 240 261 269 266 259 258 228 144 141 140 134 136 133 122 106 96 90 99 106 111 117 122 125 128 130 132 133 136 139 144 150 158 160
231 228 224 220 220 223 232 243 251 250 244 225 172 153 144 139 131 117 109 108 103 102 94 93 97 101 104 108 111 113 113 113 113 113 111 111 112 116
232 230 226 220 217 216 224 229 231 236 234 224 195 161 153 149 138 133 129 125 120 109 92 95 97 95 99 103 108 109 108 108 107 105 102 100 98 97
234 228 229 222 219 212 212 210 215 218 220 212 202 173 159 160 159 149 139 127 114 124 121 118 109 99 94 100 105 111 109 107 106 104 103 101 99 96
242 232 233 231 223 209 204 196 200 211 211 207 201 188 176 170 161 152 146 144 139 152 135 125 118 108 101 91 108 113 113 112 110 108 105 103 101 99
249 236 236 233 212 205 201 200 203 211 208 207 203 198 179 172 163 159 160 158 140 152 134 115 105 92 85 94 111 114 115 116 115 114 111 107 104 101
241 231 224 242 235 210 201 203 205 205 204 203 205 203 176 159 166 160 153 130 118 129 127 115 113 103 97 96 106 114 117 119 120 119 116 111 105 100
241 231 219 222 228 216 205 204 204 202 203 199 190 184 178 161 165 153 148 145 143 143 128 117 126 114 102 101 108 115 119 124 126 128 127 123 119 107
237 239 231 223 213 205 207 206 206 200 187 186 184 182 185 178 179 172 162 157 149 148 160 130 146 137 120 118 129 135 121 122 130 136 141 145 143 124
233 231 225 204 199 201 207 208 212 195 183 181 183 185 185 183 180 177 175 167 161 154 160 145 157 149 130 139 152 160 149 150 147 150 165 181 191 160
236 241 231 200 196 197 202 195 182 182 180 181 185 186 190 188 181 175 179 173 163 151 159 154 155 160 140 143 149 160 161 166 166 168 178 192 216 188
277 1 190 189 188 198 207 185 176 192 197 190 195 194 190 184 169 161 160 145 125 140 155 156 150 152 149 149 148 157 161 172 176 173 173 172 173 159
206 186 180 187 205 212 188 193 206 213 207 202 191 189 177 175 169 158 155 145 128 120 136 149 152 153 151 147 149 158 162 166 175 176 171 172 176 174
185 181 185 184 199 209 201 195 202 205 213 208 192 184 173 176 167 156 156 150 143 147 144 137 134 136 144 148 154 162 165 164 169 171 166 173 183 181
199 205 208 210 211 210 207 203 202 205 203 196 191 182 176 173 166 159 161 159 153 152 153 155 148 137 133 153 164 162 167 166 164 166 171 172 179 182
219 224 222 222 223 223 217 213 206 205 200 193 189 182 174 169 167 165 166 161 158 157 160 161 164 164 170 172 178 177 167 160 157 163 181 181 177 175
230 230 225 228 233 227 219 219 212 200 197 195 188 175 171 169 170 170 169 165 161 157 160 170 176 180 182 170 156 169 173 157 154 164 183 195 166 160
227 230 230 228 228 222 214 215 210 200 193 188 184 174 172 170 171 168 166 163 162 164 170 177 185 184 174 141 143 148 154 159 160 166 178 182 166 155
250 242 241 235 224 217 209 208 200 196 191 191 184 176 172 172 171 167 165 168 171 169 170 170 168 178 184 164 159 156 149 145 151 159 164 175 177 179
254 252 244 236 226 212 207 205 204 195 189 190 183 176 172 171 168 166 164 167 169 166 164 163 168 178 183 167 154 153 155 156 158 158 150 132 115 115